Location: Monrovia
(34.7865°N, 86.7139°W)
Time: 14:40:06
(UTC+00:00)

Cosmos 2346 Rocket - Pass Details

Date: 14 July 2020
Orbit: 936 x 981 km, 82.9° (Epoch: 12 August)

Event Time Altitude Azimuth Distance (km) Brightness Sun altitude
Rises 07:46:33 0° 352° (N) 3,644 8.2 -27.5°
Reaches altitude 10° 07:49:04 10° 351° (N) 2,688 7.4 -27.2°
Maximum altitude 07:55:13 79° 266° (W) 966 4.3 -26.6°
Enters shadow 07:55:55 69° 206° (SSW) 1,007 4.3 -26.5°
